Weather History for Plymouth, NH

Change the Weather History Date:

Sunday, November 25, 2012

  Actual Average (KLCI) Record (KLCI)
Temperature  
Mean Temperature 30 °F -  
Max Temperature 34 °F 39 °F 62 °F (2004)
Min Temperature 25 °F 24 °F 8 °F (2000)
Degree Days  
Heating Degree Days 36    
Moisture  
Dew Point 14 °F    
Average Humidity 55    
Maximum Humidity 79    
Minimum Humidity 35    
Precipitation  
Precipitation 0.00 in - - ()
Sea Level Pressure  
Sea Level Pressure 29.68 in    
Wind  
Wind Speed 9 mph (WNW)    
Max Wind Speed 20 mph    
Max Gust Speed 29 mph    
Visibility 10 miles    
Events Snow    
Averages and records for this station are not official NWS values.
T = Trace of Precipitation, MM = Missing Value Source: NWS Daily Summary

Daily Weather History Graph

Daily Weather History Graph

Search for Another Location

Airport:

Trip Planner

Search our weather history database for the weather conditions in past years. The results will help you decide how hot, cold, wet, or windy it might be!

Date:

Astronomy

Nov. 25, 2012 Rise Set
Actual Time 6:54 AM EST 4:13 PM EST
Civil Twilight 6:22 AM EST 4:45 PM EST
Nautical Twilight 5:47 AM EST 5:20 PM EST
Astronomical Twilight 5:12 AM EST 5:55 PM EST
Moon 2:32 PM EST (11/25) 4:01 AM EST (11/25)
Length of Visible Light 10h 22m
Length of Day
9h 18m
Waxing Gibbous, 93% of the Moon is Illuminated
Nov 25
Waxing Gibbous
Nov 28
Full
Dec 6
Last Quarter
Dec 13
New
Dec 20
First Quarter

Hourly Weather History & Observations

Time (EST) Temp. Windchill Dew Point Humidity Pressure Visibility Wind Dir Wind Speed Gust Speed Precip Events Conditions
12:15 AM 29.5 °F 18.8 °F 20.1 °F 68% 29.59 in 7.0 mi West 13.8 mph 27.6 mph N/A Snow Light Snow
12:35 AM 28.2 °F 19.5 °F 22.3 °F 78% 29.60 in 5.0 mi WNW 9.2 mph - N/A Snow Light Snow
12:55 AM 28.4 °F 20.4 °F 21.7 °F 76% 29.60 in 5.0 mi West 8.1 mph 17.3 mph N/A Snow Light Snow
1:15 AM 28.0 °F 18.6 °F 22.3 °F 79% 29.60 in 5.0 mi WNW 10.4 mph 19.6 mph N/A Snow Light Snow
1:35 AM 28.2 °F 21.0 °F 21.7 °F 77% 29.61 in 10.0 mi WNW 6.9 mph 17.3 mph N/A Snow Light Snow
1:55 AM 28.2 °F 17.7 °F 21.4 °F 76% 29.62 in 7.0 mi WNW 12.7 mph 19.6 mph N/A Snow Light Snow
2:15 AM 28.0 °F 21.7 °F 21.7 °F 77% 29.62 in 10.0 mi NW 5.8 mph - N/A Snow Light Snow
2:35 AM 28.0 °F 18.6 °F 21.7 °F 77% 29.63 in 7.0 mi WNW 10.4 mph 16.1 mph N/A Snow Light Snow
2:55 AM 28.4 °F 18.0 °F 19.6 °F 70% 29.63 in 10.0 mi WNW 12.7 mph 20.7 mph N/A Snow Light Snow
3:15 AM 28.2 °F 19.5 °F 19.4 °F 70% 29.63 in 10.0 mi NW 9.2 mph 17.3 mph N/A   Overcast
3:35 AM 28.2 °F 18.3 °F 19.0 °F 68% 29.62 in 10.0 mi NW 11.5 mph 21.9 mph N/A   Overcast
3:55 AM 28.0 °F 20.0 °F 19.2 °F 70% 29.63 in 10.0 mi NW 8.1 mph - N/A   Overcast
4:15 AM 28.4 °F 19.1 °F 18.3 °F 66% 29.63 in 10.0 mi WNW 10.4 mph 25.3 mph N/A   Overcast
4:35 AM 28.2 °F 17.7 °F 18.1 °F 66% 29.63 in 10.0 mi NW 12.7 mph 24.2 mph N/A   Overcast
4:55 AM 28.4 °F 20.4 °F 17.2 °F 63% 29.64 in 10.0 mi WNW 8.1 mph 19.6 mph N/A   Overcast
5:15 AM 28.0 °F 18.1 °F 17.2 °F 64% 29.64 in 10.0 mi WNW 11.5 mph 25.3 mph N/A   Overcast
5:35 AM 28.0 °F 17.0 °F 15.3 °F 59% 29.65 in 10.0 mi WNW 13.8 mph 28.8 mph N/A   Mostly Cloudy
5:55 AM 27.5 °F 18.0 °F 15.3 °F 60% 29.66 in 10.0 mi NW 10.4 mph 19.6 mph N/A   Scattered Clouds
6:15 AM 27.5 °F - 15.8 °F 61% 29.66 in 10.0 mi Calm Calm - N/A   Overcast
6:35 AM 27.5 °F 16.8 °F 16.7 °F 64% 29.66 in 10.0 mi WNW 12.7 mph 17.3 mph N/A   Overcast
6:55 AM 27.3 °F 19.9 °F 17.1 °F 65% 29.66 in 10.0 mi NW 6.9 mph - N/A   Overcast
7:15 AM 27.3 °F 20.9 °F 16.9 °F 65% 29.66 in 10.0 mi WNW 5.8 mph - N/A   Mostly Cloudy
7:35 AM 27.5 °F 21.1 °F 16.3 °F 63% 29.67 in 10.0 mi WNW 5.8 mph - N/A   Mostly Cloudy
7:55 AM 28.6 °F 17.7 °F 14.9 °F 57% 29.67 in 10.0 mi West 13.8 mph 27.6 mph N/A   Mostly Cloudy
8:15 AM 29.3 °F 20.8 °F 14.7 °F 55% 29.68 in 10.0 mi WNW 9.2 mph 20.7 mph N/A   Overcast
8:55 AM 29.7 °F 18.6 °F 15.1 °F 55% 29.68 in 10.0 mi West 15.0 mph 21.9 mph N/A   Mostly Cloudy
9:15 AM 30.0 °F 21.7 °F 15.1 °F 54% 29.69 in 10.0 mi WNW 9.2 mph - N/A   Overcast
9:35 AM 30.6 °F 22.4 °F 14.7 °F 52% 29.69 in 10.0 mi WNW 9.2 mph 20.7 mph N/A   Overcast
9:55 AM 31.6 °F 22.1 °F 14.4 °F 49% 29.69 in 10.0 mi WNW 12.7 mph 18.4 mph N/A   Overcast
10:15 AM 31.3 °F 22.1 °F 14.2 °F 49% 29.69 in 10.0 mi West 11.5 mph 20.7 mph N/A   Overcast
10:35 AM 30.7 °F 22.0 °F 13.3 °F 48% 29.69 in 10.0 mi West 10.4 mph 16.1 mph N/A   Mostly Cloudy
10:55 AM 32.0 °F 20.1 °F 13.3 °F 46% 29.69 in 10.0 mi West 19.6 mph 26.5 mph N/A   Mostly Cloudy
11:15 AM 32.0 °F 21.6 °F 12.2 °F 44% 29.68 in 10.0 mi West 15.0 mph 26.5 mph N/A   Overcast
11:35 AM 31.8 °F 22.3 °F 11.8 °F 44% 29.67 in 10.0 mi West 12.7 mph 24.2 mph N/A   Overcast
11:55 AM 32.5 °F 21.9 °F 11.5 °F 42% 29.66 in 10.0 mi West 16.1 mph 24.2 mph N/A   Mostly Cloudy
12:15 PM 32.9 °F 22.8 °F 11.8 °F 42% 29.66 in 10.0 mi West 15.0 mph 21.9 mph N/A   Scattered Clouds
12:55 PM 33.3 °F 24.6 °F 12.6 °F 42% 29.66 in 10.0 mi West 11.5 mph 23.0 mph N/A   Scattered Clouds
1:15 PM 33.3 °F 24.1 °F 11.3 °F 40% 29.66 in 10.0 mi WSW 12.7 mph 23.0 mph N/A   Clear
1:35 PM 33.1 °F 23.4 °F 10.6 °F 39% 29.66 in 10.0 mi West 13.8 mph 25.3 mph N/A   Clear
1:55 PM 34.2 °F 26.8 °F 10.9 °F 38% 29.66 in 10.0 mi West 9.2 mph 20.7 mph N/A   Clear
2:15 PM 32.9 °F 24.1 °F 9.5 °F 38% 29.66 in 10.0 mi West 11.5 mph 21.9 mph N/A   Clear
2:35 PM 33.8 °F 26.4 °F 9.0 °F 36% 29.66 in 10.0 mi West 9.2 mph 19.6 mph N/A   Clear
2:55 PM 32.5 °F 24.2 °F 7.3 °F 35% 29.67 in 10.0 mi West 10.4 mph 19.6 mph N/A   Clear
3:15 PM 32.0 °F 23.0 °F 7.2 °F 35% 29.67 in 10.0 mi West 11.5 mph 20.7 mph N/A   Clear
3:35 PM 32.0 °F 26.4 °F 7.9 °F 36% 29.68 in 10.0 mi West 5.8 mph 16.1 mph N/A   Clear
3:55 PM 31.8 °F 23.3 °F 6.8 °F 35% 29.68 in 10.0 mi WNW 10.4 mph - N/A   Clear
4:15 PM 31.3 °F 23.9 °F 7.3 °F 37% 29.68 in 10.0 mi WNW 8.1 mph - N/A   Clear
4:35 PM 31.1 °F 26.4 °F 6.8 °F 36% 29.69 in 10.0 mi WNW 4.6 mph - N/A   Clear
4:55 PM 30.7 °F 24.9 °F 7.3 °F 37% 29.69 in 10.0 mi WNW 5.8 mph - N/A   Clear
5:15 PM 30.6 °F 25.8 °F 7.2 °F 37% 29.69 in 10.0 mi WNW 4.6 mph - N/A   Clear
5:35 PM 30.2 °F 25.4 °F 7.2 °F 38% 29.70 in 10.0 mi WNW 4.6 mph - N/A   Clear
5:55 PM 29.7 °F - 6.4 °F 38% 29.70 in 10.0 mi Calm Calm - N/A   Clear
6:15 PM 29.3 °F - 6.8 °F 39% 29.71 in 10.0 mi Calm Calm - N/A   Clear
6:55 PM 28.9 °F - 7.5 °F 41% 29.72 in 10.0 mi Calm Calm - N/A   Clear
7:15 PM 28.4 °F 24.6 °F 9.0 °F 44% 29.72 in 10.0 mi West 3.5 mph - N/A   Clear
7:35 PM 28.4 °F - 10.0 °F 46% 29.73 in 10.0 mi Calm Calm - N/A   Clear
7:55 PM 26.1 °F - 12.0 °F 55% 29.74 in 10.0 mi Calm Calm - N/A   Clear
8:15 PM 28.2 °F 24.4 °F 14.5 °F 57% 29.74 in 10.0 mi NW 3.5 mph - N/A   Clear
8:35 PM 26.6 °F - 14.9 °F 61% 29.74 in 10.0 mi Calm Calm - N/A   Clear
8:55 PM 26.1 °F - 15.6 °F 65% 29.75 in 10.0 mi Calm Calm - N/A   Clear
9:15 PM 25.5 °F - 17.1 °F 70% 29.75 in 10.0 mi Calm Calm - N/A   Clear
9:35 PM 25.3 °F 21.1 °F 17.6 °F 72% 29.76 in 10.0 mi West 3.5 mph - N/A   Scattered Clouds
9:55 PM 27.5 °F 23.6 °F 17.8 °F 67% 29.76 in 10.0 mi West 3.5 mph - N/A   Scattered Clouds
10:15 PM 28.8 °F 22.6 °F 16.9 °F 61% 29.76 in 10.0 mi West 5.8 mph - N/A   Scattered Clouds
10:55 PM 27.5 °F - 15.3 °F 60% 29.77 in 10.0 mi Calm Calm - N/A   Scattered Clouds
11:15 PM 27.9 °F 24.0 °F 14.9 °F 58% 29.78 in 10.0 mi West 3.5 mph - N/A   Mostly Cloudy
11:35 PM 28.0 °F - 14.2 °F 56% 29.79 in 10.0 mi Calm Calm - N/A   Scattered Clouds
11:55 PM 27.3 °F - 14.0 °F 57% 29.79 in 10.0 mi Calm Calm - N/A   Scattered Clouds